Temp
10 10 10 10 10 9 10 10 9 9 10 10 10 10 9 10 10 9 10 12 14 15 14 13 13 13 14 15 15 15 16 15 15 13 15 22 26 26 25 25 25 23 23 23 23 22 22 22 23 23 23 24 25 25 25 25 24 23 23 23 23 24 25 26 27 26 26 26 24 24 25 25 24 24 25 25 25 24 24 24 25 25 25 25 24 23 23 22
10 10 9 9 9 9 10 10 10 10 10 10 9 9 10 9 9 9 10 12 14 15 16 15 14 14 14 14 14 15 15 14 14 14 19 26 26 25 25 25 24 24 23 23 23 24 23 23 23 24 24 25 25 25 25 25 24 24 24 23 23 25 26 27 27 26 27 26 25 25 25 26 25 24 25 25 24 24 24 24 24 24 23 24 23 23 23 22
10 9 9 9 9 10 11 12 12 12 12 11 10 10 10 10 9 9 10 12 14 15 16 16 16 15 14 13 13 15 14 13 17 21 25 27 27 26 25 24 24 24 24 24 24 25 24 23 24 25 25 25 25 25 25 24 25 25 25 24 24 25 26 27 27 27 26 26 25 25 25 26 25 25 25 25 24 24 24 24 24 23 23 23 23 23 23 23
10 9 9 9 10 12 12 13 14 15 15 14 13 12 11 11 11 10 11 12 14 15 15 16 17 16 14 13 14 15 13 17 24 26 25 26 28 26 25 24 23 24 24 24 24 24 24 24 25 25 25 25 25 25 25 25 25 25 25 25 25 26 26 26 26 26 26 26 25 25 25 25 25 25 25 25 25 24 25 25 25 24 24 23 23 24 23 23
10 10 10 10 11 13 14 14 15 15 15 15 16 15 13 12 13 12 11 12 14 15 15 16 16 16 14 14 15 14 15 22 27 25 25 26 27 26 25 24 24 24 24 24 24 24 24 24 25 25 25 25 25 25 25 25 25 25 26 26 25 26 26 26 26 26 26 25 25 25 26 25 25 25 25 26 26 25 25 25 25 25 24 24 24 24 24 24
10 11 11 11 11 13 14 15 15 15 15 15 15 15 14 13 12 12 12 12 14 15 16 16 15 15 14 15 15 14 18 25 25 25 26 26 27 26 25 25 24 24 24 24 24 24 24 25 25 25 25 25 25 25 26 26 26 26 26 26 25 25 25 26 26 25 25 25 25 26 26 25 25 25 25 26 26 26 25 25 25 25 25 24 24 24 24 24
12 12 12 12 12 13 15 16 16 16 15 15 15 15 15 14 13 13 12 13 14 16 16 15 14 14 15 15 15 15 19 25 24 25 26 26 26 25 24 24 23 24 24 24 24 25 25 24 25 25 25 25 25 26 26 26 26 25 26 26 25 24 24 25 26 25 26 25 25 26 26 26 26 25 25 25 25 25 25 25 26 25 25 25 24 24 24 24
13 13 13 13 13 14 15 16 16 17 16 16 15 15 15 15 14 13 13 14 15 16 16 15 14 14 15 15 17 19 21 24 25 24 25 26 25 24 24 23 22 23 24 24 25 25 25 24 25 26 25 26 26 26 26 26 25 25 26 26 24 23 23 24 25 25 25 25 25 26 25 25 26 26 25 25 25 25 25 25 25 25 25 25 24 24 24 24
14 14 14 14 14 15 15 16 16 17 17 17 16 16 15 15 14 14 14 15 16 16 16 15 14 14 15 14 17 22 24 24 24 24 25 26 25 24 24 23 23 24 24 24 24 25 25 25 25 26 26 26 26 27 27 26 26 26 26 26 24 24 23 24 25 25 25 25 26 25 24 25 25 26 25 24 25 25 25 25 25 25 24 24 24 24 25 25
14 14 14 14 14 15 15 16 16 17 17 17 17 16 16 15 15 15 15 15 16 16 16 15 14 14 14 15 19 24 24 23 23 23 24 25 25 24 23 23 23 24 24 24 24 25 26 26 26 26 27 26 26 27 27 27 27 27 26 26 25 24 24 24 24 25 25 25 25 25 24 24 25 26 25 24 25 25 25 25 24 25 24 24 24 24 25 25
14 14 14 14 15 15 16 16 16 17 18 18 18 17 17 16 16 16 15 16 16 16 16 15 14 14 14 15 21 24 24 23 24 23 23 25 25 24 23 24 24 24 24 24 24 25 25 26 27 27 27 26 26 27 27 27 27 26 26 25 25 25 24 24 24 24 25 24 25 25 25 25 25 26 25 24 25 25 25 24 24 25 24 25 24 24 25 25
15 15 15 15 16 16 17 17 17 17 18 18 18 17 17 17 17 17 16 16 16 16 16 13 13 13 14 17 21 23 24 24 24 23 23 24 23 23 24 24 24 25 25 25 25 25 25 26 27 27 27 26 27 27 27 27 27 26 26 25 24 25 24 23 24 24 25 24 24 25 24 25 25 25 25 25 25 25 25 25 24 25 24 25 24 24 25 25
15 15 15 16 16 17 17 17 18 18 18 17 17 17 17 17 17 17 17 17 16 16 14 12 12 13 15 20 23 23 24 23 24 23 23 23 23 23 24 24 23 24 25 25 25 25 25 26 27 27 26 27 27 27 27 28 27 27 27 26 25 25 24 23 24 24 25 24 24 24 23 24 25 24 24 25 25 25 25 25 24 24 25 25 25 24 25 25
16 16 16 16 17 17 17 18 18 18 18 17 17 17 17 17 18 17 17 17 16 14 12 11 13 14 17 22 24 23 23 23 23 23 23 23 23 22 22 23 23 24 25 25 25 25 25 25 27 27 27 27 27 27 27 27 27 27 26 26 26 24 23 24 24 24 24 23 23 24 23 24 25 24 24 25 25 25 25 25 25 25 25 25 25 25 25 25
16 16 16 16 17 17 18 18 18 18 17 17 17 17 17 18 18 17 16 16 14 12 11 12 13 14 18 22 23 23 23 23 23 23 23 24 24 22 22 22 23 24 25 25 25 25 25 25 26 27 27 27 27 27 27 26 27 27 25 24 25 24 23 24 23 24 24 23 23 24 23 24 25 24 24 25 25 25 25 25 25 25 25 25 25 25 25 25
17 16 16 17 17 18 18 18 19 18 17 17 17 17 17 17 17 16 15 14 13 12 12 14 14 15 20 23 24 24 23 23 23 23 23 24 25 23 22 22 23 23 25 25 24 25 25 26 26 26 27 27 27 28 27 25 25 27 25 23 24 24 24 25 24 23 24 24 23 23 23 24 25 25 24 25 25 25 25 25 25 25 25 25 25 25 25 25
17 17 17 17 17 18 18 19 19 18 18 18 17 17 17 17 17 16 14 12 12 12 13 14 13 15 21 24 24 24 24 24 24 23 23 24 25 23 22 22 23 23 24 25 25 25 25 26 26 26 26 26 27 28 25 22 22 24 25 24 24 25 24 24 24 24 24 24 23 23 24 24 25 25 24 25 25 25 25 25 25 25 25 25 25 25 25 25
17 17 17 17 18 18 19 19 18 18 18 18 18 17 17 16 16 15 13 12 12 13 14 14 14 17 22 25 24 24 24 24 24 23 23 23 24 23 23 23 23 24 24 25 25 25 25 26 26 26 27 26 27 28 24 22 23 23 24 23 23 24 24 24 25 25 24 24 24 24 24 25 25 25 24 25 25 25 25 25 25 25 25 25 25 25 25 25
17 17 18 18 18 18 19 19 18 18 17 18 18 17 16 16 15 15 13 13 15 18 19 18 18 21 23 23 24 24 24 24 24 24 23 23 23 23 24 23 23 24 25 25 25 25 26 26 25 25 26 27 28 28 26 26 27 26 25 24 24 23 24 25 26 26 25 25 25 24 24 24 25 25 24 25 25 25 25 25 25 25 25 25 25 26 26 25
17 18 18 18 18 19 19 19 19 18 17 17 17 16 17 18 18 18 15 15 18 21 22 21 20 22 23 23 23 24 25 25 24 24 23 24 24 24 24 23 24 25 25 26 25 25 26 26 25 25 26 28 28 28 28 28 28 28 26 25 25 24 24 26 26 26 26 25 25 25 25 25 25 25 25 25 25 25 25 25 25 25 25 26 26 26 26 26
18 18 18 19 19 19 20 19 19 19 17 17 17 18 20 20 21 21 19 19 19 19 20 20 20 21 23 22 22 24 25 25 25 24 24 24 25 25 24 24 25 25 25 25 25 25 26 25 25 27 27 27 27 27 28 28 28 28 27 25 24 24 25 26 26 26 27 26 25 25 25 25 25 25 25 24 25 26 26 25 25 25 25 26 26 26 26 26
18 18 19 19 19 19 20 20 19 19 18 18 17 19 21 21 21 21 21 21 21 19 19 19 19 20 21 21 22 23 24 25 25 24 24 25 25 25 25 25 26 25 24 25 25 25 25 25 26 26 25 25 26 26 27 28 29 28 27 25 23 24 25 25 26 26 25 25 25 25 25 25 25 25 24 24 25 26 26 26 26 26 25 25 26 26 27 27
18 19 19 20 20 20 20 20 20 19 19 18 18 19 21 21 21 21 21 21 21 20 19 19 20 21 22 22 22 23 24 25 25 25 25 25 25 25 25 25 25 25 25 26 26 24 23 25 26 25 25 26 27 26 27 28 28 28 27 25 23 25 25 23 24 24 24 25 25 25 25 25 25 25 24 24 25 25 25 26 26 26 26 26 26 27 27 27
18 19 20 20 20 20 21 20 20 19 19 19 19 21 22 22 21 21 21 21 21 21 21 21 21 22 23 24 23 24 25 25 25 26 25 26 25 25 26 26 25 25 25 26 26 25 24 25 25 24 25 27 27 26 27 27 27 27 28 26 24 25 26 24 24 24 24 25 26 25 23 23 24 24 24 24 24 24 24 25 25 26 26 26 26 27 27 27
19 19 20 20 20 20 20 19 20 20 20 19 21 22 22 22 22 21 22 21 21 23 23 21 21 23 24 24 23 24 25 25 26 26 25 26 26 25 25 25 25 26 24 24 26 26 26 25 24 25 25 26 27 27 27 27 26 26 27 28 27 27 26 26 25 25 23 22 25 25 22 21 23 24 24 25 24 24 24 24 25 25 26 26 26 26 27 27
19 19 20 20 21 20 19 20 20 21 21 21 22 23 22 23 22 22 22 21 22 23 24 23 23 24 25 24 23 24 25 25 26 25 26 27 27 26 26 25 25 25 24 25 26 25 25 25 25 26 26 26 27 27 27 27 25 24 27 28 28 28 26 25 25 24 22 22 25 26 22 21 23 23 25 25 24 25 25 24 25 25 25 26 26 26 27 27
19 20 20 21 21 20 20 22 21 21 22 23 23 23 23 23 22 22 22 21 21 22 24 24 24 25 25 24 24 25 24 25 26 25 26 27 27 27 26 25 26 25 24 25 24 24 25 25 25 26 26 26 26 26 27 27 26 24 27 28 27 28 26 26 26 24 24 24 25 25 24 22 22 24 26 25 24 25 25 25 25 25 25 26 26 26 27 27
19 20 20 21 21 21 21 22 21 21 23 23 23 23 23 23 22 22 22 20 21 23 24 24 25 25 25 24 25 25 25 25 26 26 26 26 26 27 27 26 26 26 25 25 23 24 25 25 26 26 26 26 26 27 27 27 27 27 28 28 27 27 27 27 26 24 25 24 22 23 24 22 21 24 26 26 24 24 25 25 26 25 26 26 26 27 27 27
19 20 21 21 22 22 21 21 21 22 23 23 23 23 23 23 23 22 21 20 22 24 24 25 25 25 25 26 25 25 26 26 26 26 26 26 27 27 26 26 26 26 25 25 25 25 25 26 26 27 27 27 27 28 27 27 28 28 27 28 27 27 27 27 26 24 24 23 21 22 23 22 22 23 24 24 24 25 26 26 26 26 26 26 26 27 27 27
20 20 21 22 22 22 21 21 22 23 23 23 23 23 23 23 22 21 20 21 22 24 24 25 25 25 25 26 26 25 26 26 25 26 26 26 27 27 25 25 26 26 25 25 26 26 26 25 26 27 27 28 28 27 26 28 29 28 27 27 27 26 25 26 26 24 22 21 22 23 23 23 22 22 24 24 25 26 27 26 26 27 26 26 26 27 27 27
20 21 22 22 22 22 21 22 24 24 23 23 22 23 23 22 22 21 20 22 22 23 24 24 24 25 25 26 26 25 26 26 25 26 26 26 27 27 25 25 26 25 25 25 25 26 25 25 26 27 27 27 27 26 26 27 28 28 28 27 24 23 23 23 23 22 21 21 22 23 24 23 21 23 25 26 26 27 27 26 26 26 26 27 26 27 27 27
21 22 23 23 23 22 23 24 24 23 23 23 22 22 22 22 21 20 21 22 22 23 24 24 24 24 25 25 25 25 25 25 25 25 26 25 26 26 25 25 25 23 22 23 24 25 26 26 26 27 27 27 28 27 25 26 27 28 27 25 22 21 21 21 20 21 21 21 22 24 24 22 22 24 27 27 27 27 27 27 27 26 26 26 26 27 27 27
22 23 24 24 24 24 24 24 23 23 22 22 22 22 23 21 21 21 21 22 22 23 24 23 23 24 24 25 25 24 25 25 25 25 24 24 26 25 24 24 25 24 22 22 23 23 24 26 26 26 27 27 28 27 24 24 26 27 26 24 22 21 21 21 20 21 21 22 22 24 24 22 23 25 26 26 26 26 26 27 27 26 26 26 26 26 26 26
23 24 24 25 25 25 24 24 23 22 22 22 22 23 22 21 21 21 22 23 23 23 23 22 23 24 24 25 24 24 25 24 24 25 25 25 25 25 25 24 24 25 25 23 22 22 22 23 25 27 27 27 28 28 28 27 26 27 28 26 23 22 21 21 21 21 21 21 22 23 23 21 22 24 25 25 25 25 25 26 27 27 26 27 26 25 25 26
24 25 25 25 25 24 24 24 24 22 22 22 23 23 21 20 21 21 22 23 23 24 23 22 24 24 24 24 23 23 24 24 24 25 25 25 24 24 25 25 24 25 25 23 22 23 21 22 26 27 25 27 29 29 29 29 26 27 29 27 23 24 24 22 22 22 22 21 21 22 22 23 24 24 24 25 24 25 25 26 27 27 27 27 26 26 25 26
24 25 25 25 24 24 24 24 24 22 22 24 24 22 21 21 22 22 23 24 23 24 24 23 24 24 23 23 24 23 24 24 24 24 24 24 24 24 24 24 24 25 25 24 23 23 21 23 27 26 25 27 28 28 29 28 26 26 25 24 25 28 27 22 21 22 22 21 22 22 22 24 25 24 25 25 24 25 25 26 27 27 27 27 26 26 26 26
24 24 25 24 24 24 24 24 23 23 23 25 24 21 21 23 23 23 23 23 23 23 23 23 22 22 22 22 23 24 25 24 24 24 23 23 23 24 24 24 24 24 25 25 24 24 22 23 26 27 27 27 26 27 29 28 28 26 24 26 27 28 27 24 22 22 21 21 22 21 22 22 23 23 24 25 25 25 25 26 27 26 26 26 26 26 26 26
24 24 24 24 23 24 24 24 23 23 24 25 23 22 22 23 23 23 23 23 23 23 23 22 22 22 22 22 22 23 24 23 24 24 23 23 23 23 24 24 24 24 24 24 24 24 23 23 25 26 27 26 26 27 27 27 28 28 27 29 28 24 23 23 22 22 21 21 21 21 22 22 22 23 24 25 25 24 25 25 26 26 26 26 26 26 25 25
24 25 25 24 24 24 24 23 23 24 25 24 23 22 22 23 24 23 23 22 23 24 24 22 22 22 22 22 22 23 23 23 23 23 22 23 23 23 24 24 25 24 22 23 25 25 24 22 23 26 26 26 27 27 25 25 27 28 28 29 28 25 24 23 23 23 22 21 22 21 21 22 23 24 25 25 25 24 24 25 25 26 26 26 26 25 24 24
22 25 25 23 24 24 23 23 24 25 25 22 22 22 22 23 24 24 23 22 23 24 24 23 23 23 22 22 22 22 23 23 23 23 22 23 23 24 24 23 24 25 23 23 25 24 24 23 22 25 26 24 25 26 26 27 27 27 26 26 26 26 25 25 24 23 22 22 22 22 21 22 23 23 24 25 25 24 24 24 25 25 25 25 25 24 24 24
21 25 24 23 23 23 23 24 23 23 23 22 21 22 22 23 24 24 23 23 24 24 24 23 23 23 22 23 22 22 23 22 22 23 23 23 23 23 24 23 22 23 24 25 25 24 24 23 22 24 24 23 25 26 26 26 27 28 27 26 26 26 24 23 22 22 23 22 22 22 22 22 23 23 23 25 25 24 24 24 23 24 24 24 24 24 24 23
23 25 24 23 23 23 24 24 21 20 23 23 22 22 23 23 23 23 23 23 24 24 24 23 23 22 22 23 22 22 23 22 22 23 23 23 23 23 24 23 21 22 24 25 25 24 24 24 22 22 23 25 26 25 23 23 25 27 28 28 29 28 25 23 22 22 22 22 22 22 22 22 22 23 24 25 24 24 23 23 23 23 23 23 23 23 23 23
24 24 23 23 23 23 24 24 22 21 23 23 22 22 22 22 23 23 22 22 23 24 24 23 23 23 22 22 22 22 22 22 22 22 23 23 23 24 23 22 21 22 24 25 24 24 23 23 22 22 24 26 27 26 25 24 25 26 27 27 27 26 26 25 24 24 23 22 22 22 22 22 22 23 23 24 24 23 23 23 22 21 21 22 22 22 22 22
21 21 23 23 23 24 24 24 23 23 23 22 23 23 23 23 22 23 22 22 22 22 23 23 23 23 22 22 22 22 22 22 22 22 22 22 23 24 23 22 22 23 24 24 24 24 23 22 21 22 22 23 24 25 25 25 26 26 25 26 25 25 26 26 25 25 23 22 22 22 22 22 22 22 22 23 23 23 23 23 22 21 21 21 22 22 22 22
20 21 22 23 23 23 23 22 23 23 23 23 23 22 22 23 22 22 22 22 21 21 22 22 21 22 22 21 22 22 22 22 22 21 22 22 23 24 23 22 22 23 23 23 23 24 23 21 21 21 21 21 21 22 22 23 24 24 25 25 25 25 25 25 24 23 22 21 22 22 22 21 21 22 21 22 22 22 22 22 22 21 21 21 21 21 21 21
22 23 23 23 23 22 20 19 21 23 23 23 23 21 22 23 23 22 22 22 21 21 21 21 20 21 22 22 22 22 22 22 22 21 22 22 23 23 23 23 23 23 23 22 22 23 23 22 21 21 22 22 21 22 22 23 23 23 24 24 25 24 25 25 24 22 22 22 21 22 22 21 21 21 21 21 22 21 21 21 21 21 20 20 20 20 21 21
22 22 21 22 23 22 21 20 20 22 22 22 22 21 21 22 22 23 23 22 21 21 21 21 21 21 22 22 22 22 21 21 22 21 21 21 22 22 22 23 23 23 24 23 22 23 24 22 22 22 22 22 23 23 23 23 22 22 23 23 24 24 24 24 23 23 24 23 22 22 22 21 22 22 21 21 21 21 20 20 20 20 20 20 20 20 21 20
20 20 18 19 21 22 22 21 20 21 21 21 21 21 21 21 21 22 22 22 22 21 22 22 21 20 20 20 22 22 21 21 21 21 21 21 21 23 23 24 24 23 24 23 22 23 24 22 22 22 22 22 23 23 23 23 23 23 23 23 24 24 24 24 23 24 24 23 22 23 22 22 23 23 22 21 21 21 21 20 20 20 20 21 21 21 21 21
19 19 17 18 19 20 19 19 20 21 21 21 21 21 21 21 21 20 21 22 22 21 21 21 21 20 20 20 21 21 20 21 21 21 21 21 21 22 23 24 24 24 24 24 22 21 22 22 21 21 22 22 22 23 24 24 23 23 24 24 24 24 24 23 23 23 23 23 23 23 23 23 24 24 23 22 22 22 21 21 21 20 21 21 21 21 21 21
18 19 18 19 20 19 18 19 20 22 21 21 21 21 20 21 21 20 20 21 22 22 21 21 20 20 20 20 21 21 20 21 21 21 21 21 21 22 22 22 23 24 24 23 22 22 22 21 20 20 22 22 22 22 23 25 24 23 24 24 25 25 24 24 23 23 23 22 23 23 22 22 24 24 23 22 22 22 22 21 21 21 21 21 21 22 22 21
15 15 16 19 21 19 18 19 20 22 22 21 21 21 20 21 21 20 20 20 20 21 21 21 21 20 20 21 21 21 21 20 21 22 21 21 22 22 22 21 22 23 23 23 22 23 23 21 20 21 22 22 22 23 23 24 25 24 23 23 23 23 23 23 23 23 23 22 22 22 22 22 23 23 22 21 21 21 22 22 21 21 21 21 22 22 22 22
14 14 14 18 21 19 18 19 19 21 22 21 20 20 20 21 20 20 21 20 20 20 20 20 21 21 21 21 21 21 21 21 21 22 21 21 21 21 21 21 21 21 22 22 22 21 22 22 21 21 21 21 22 23 23 23 23 22 22 22 22 23 23 23 23 23 23 23 23 22 23 23 23 22 21 21 21 21 22 22 22 22 22 22 23 23 22 21
Height
797 796 794 793 792 791 790 790 789 788 787 787 786 785 785 784 783 783 782 782 782 781 780 780 779 779 778 778 777 777 776 775 775 775 774 767 765 767 768 770 771 773 775 777 778 780 783 785 786 787 788 789 790 791 790 789 790 796 803 812 814 808 804 799 800 800 799 804 807 806 804 808 813 811 807 808 812 814 816 816 815 814 814 815 818 822 826 830
796 795 793 792 791 790 789 789 788 787 787 786 785 785 784 783 783 782 782 781 781 780 780 779 778 778 777 777 777 776 775 774 774 772 767 763 764 766 767 770 770 772 774 776 777 777 781 784 785 786 788 790 792 791 792 791 791 798 804 811 812 805 798 792 793 795 796 802 804 804 804 805 809 810 807 813 819 817 819 822 819 820 820 820 821 824 828 830
795 794 793 792 791 790 789 788 787 786 785 785 784 784 783 783 782 781 781 780 780 779 779 778 778 777 777 777 776 776 775 774 771 766 761 760 762 764 766 769 770 771 773 774 776 777 779 782 784 785 788 792 792 792 795 794 793 797 801 810 808 798 795 790 791 793 794 797 802 805 804 805 807 806 808 814 820 819 821 822 822 825 824 823 824 825 829 831
795 794 793 791 790 789 788 787 786 785 785 784 783 783 782 782 781 781 780 780 779 779 778 777 777 777 777 776 776 776 775 774 768 761 759 759 760 763 765 767 769 772 774 775 777 779 780 782 783 784 789 795 794 794 797 795 795 797 799 806 802 794 796 793 791 792 793 795 801 804 805 809 807 805 809 813 819 823 821 818 818 822 822 823 824 825 829 831
795 793 792 791 790 789 787 786 785 785 784 783 782 782 781 781 780 780 779 779 778 778 777 777 776 776 776 776 776 775 775 775 766 758 760 759 759 762 764 766 769 771 774 777 778 780 782 782 783 786 791 796 796 797 798 792 792 798 797 798 797 794 798 795 791 792 793 796 801 804 806 808 806 807 810 811 817 821 817 815 814 816 818 821 823 825 829 831
794 793 791 790 789 788 787 786 785 784 783 782 781 781 780 780 779 779 778 778 778 777 777 776 776 776 776 776 776 775 776 773 763 759 760 759 759 762 764 766 768 772 774 777 778 780 783 783 785 790 793 796 798 798 796 791 790 799 798 794 795 795 798 795 792 793 794 798 803 804 804 804 807 812 810 810 814 813 810 812 814 816 818 821 823 825 828 830
794 792 791 789 788 787 786 785 784 783 782 781 781 780 779 779 778 778 777 777 777 776 776 776 776 775 775 776 776 776 775 769 760 760 760 758 760 762 764 767 769 772 774 776 778 780 782 785 788 790 795 798 798 797 794 791 791 800 801 796 797 796 797 795 792 795 794 799 802 801 803 805 810 813 811 812 813 809 809 811 814 818 820 823 825 826 828 830
793 791 790 789 787 786 785 784 783 782 782 781 780 779 779 778 777 777 776 776 776 776 776 775 775 775 775 776 775 775 774 767 760 760 759 758 760 762 765 768 770 772 773 776 777 779 782 787 788 788 796 797 795 795 792 793 796 799 800 796 796 797 797 795 793 796 796 799 800 801 807 809 808 809 812 815 813 809 810 812 815 819 822 824 826 827 829 831
792 790 789 788 786 785 784 783 782 782 781 780 780 779 778 777 776 775 775 775 775 775 775 775 775 775 776 776 776 775 770 764 761 760 760 759 760 762 765 767 771 772 773 776 776 779 782 786 787 786 793 794 792 793 791 796 800 796 796 795 796 800 800 798 798 798 799 800 800 805 812 811 807 808 816 816 812 811 811 814 817 820 824 825 826 828 829 831
791 789 788 787 785 784 783 782 782 781 780 779 779 778 777 776 776 775 774 774 774 774 774 775 775 775 776 775 776 775 767 762 762 760 760 761 761 763 766 768 770 772 773 776 777 779 780 782 783 781 786 790 792 792 790 795 795 791 794 795 797 800 800 800 802 800 800 801 802 808 814 813 807 811 821 818 811 812 813 817 818 821 825 826 827 828 830 832
790 789 787 786 785 784 782 782 781 780 779 779 778 777 776 775 775 774 774 774 773 774 774 774 774 775 776 775 776 773 764 762 763 761 762 763 762 763 766 768 770 772 774 776 778 779 779 780 780 781 787 790 792 792 790 789 788 790 794 799 801 801 802 802 804 802 801 806 805 806 813 814 811 814 820 816 812 813 815 819 820 823 826 826 828 829 831 832
790 788 787 785 784 783 782 781 780 779 778 777 777 776 775 775 774 774 773 773 773 773 773 774 775 775 776 775 774 768 762 763 763 762 763 764 765 765 766 769 770 772 774 776 778 779 780 780 779 785 789 789 792 795 791 785 787 791 792 803 808 803 807 806 805 804 803 810 806 806 819 821 818 819 817 813 812 814 816 820 822 824 826 827 828 829 831 832
789 788 786 785 783 782 781 780 779 778 777 776 775 775 774 773 773 773 773 773 773 773 773 774 775 775 777 774 767 763 762 763 763 763 764 765 766 768 769 771 772 774 775 776 778 779 781 781 780 784 785 788 794 792 788 785 788 793 793 802 808 809 814 809 806 805 806 811 805 810 829 830 822 820 816 813 813 816 820 822 823 825 826 828 829 830 832 832
789 787 786 784 783 782 780 779 778 777 776 775 774 774 773 773 773 773 773 773 772 773 774 775 775 776 776 770 762 762 763 762 764 764 764 765 766 769 771 772 773 775 777 778 779 780 781 781 781 783 784 787 791 787 788 791 792 796 799 802 805 813 818 810 807 808 811 813 805 812 832 829 821 820 816 814 813 816 821 823 823 825 826 828 829 831 832 832
788 786 785 784 782 781 780 779 778 776 775 774 773 773 773 773 773 772 773 773 773 774 774 776 776 776 776 768 761 762 762 762 763 764 764 765 766 769 771 773 775 776 777 779 779 781 781 782 783 787 788 786 788 792 796 799 797 798 806 811 808 811 815 811 809 810 813 814 809 817 831 828 822 819 816 814 815 816 821 823 824 825 826 828 830 831 832 833
787 786 784 783 781 780 779 778 777 776 774 773 772 773 772 773 773 773 773 773 774 774 775 777 776 776 775 768 761 761 762 762 763 763 765 765 766 767 770 773 775 776 778 779 779 781 782 784 785 788 789 789 792 796 800 805 806 802 806 814 811 810 816 815 812 810 810 814 815 820 827 827 822 818 816 815 816 818 821 823 824 825 826 828 830 831 832 833
787 785 783 782 780 779 779 777 776 775 773 772 772 772 773 773 773 773 774 774 775 775 776 777 776 777 771 762 761 763 761 762 762 763 765 766 766 767 769 773 776 778 778 779 780 781 783 786 789 790 791 794 795 795 805 815 815 808 806 810 811 811 816 817 814 811 808 813 818 820 823 824 819 816 817 816 816 819 821 823 824 825 826 828 829 830 831 833
786 784 782 781 780 779 778 777 775 774 773 772 772 773 774 774 774 774 775 775 776 776 777 777 776 777 771 762 762 763 761 761 762 763 765 766 767 767 769 772 775 778 780 782 783 784 787 788 791 795 795 797 797 797 807 812 808 809 810 810 811 812 815 816 814 809 809 814 818 821 824 822 817 816 818 816 816 820 821 822 823 824 825 827 829 830 831 832
785 783 782 780 779 778 777 776 775 774 773 772 773 774 774 774 775 775 776 777 776 775 774 774 773 773 771 764 761 760 759 760 762 763 765 766 768 769 769 772 775 778 783 787 788 787 788 792 796 801 800 798 796 795 799 800 796 802 808 809 810 813 814 812 809 805 806 815 819 821 824 823 819 818 818 817 816 819 821 821 822 823 824 827 828 829 830 832
784 782 781 779 778 777 776 775 774 774 773 773 773 774 774 775 775 775 776 775 773 769 768 769 768 768 766 762 760 759 758 759 761 762 764 765 767 770 771 774 777 780 783 786 790 788 787 797 802 800 798 794 793 793 793 793 791 795 804 808 808 811 813 809 808 805 803 814 821 817 820 822 819 818 817 818 818 819 821 822 823 824 824 826 827 828 829 830
783 781 780 778 777 776 775 775 774 774 773 774 774 774 774 775 777 776 773 771 767 765 766 765 766 765 762 760 760 759 760 760 761 761 764 765 765 770 775 776 780 786 786 785 788 788 790 801 801 794 794 792 792 794 793 793 793 795 802 809 810 810 811 808 806 805 803 812 820 817 819 821 818 817 818 817 819 819 819 821 823 823 824 824 826 827 827 828
782 780 778 777 776 775 774 774 774 773 773 774 773 773 772 772 773 772 771 771 766 763 765 765 765 764 759 759 759 759 762 765 765 764 764 765 766 772 777 778 781 787 787 785 789 795 799 801 795 792 794 793 794 795 794 794 794 796 800 808 814 810 810 812 808 806 808 813 819 819 820 821 817 816 817 818 818 818 816 817 819 820 823 824 825 826 826 827
781 779 777 776 775 774 773 773 773 773 773 773 773 772 771 770 769 769 771 774 770 763 764 765 765 764 760 758 757 758 763 766 768 767 763 765 769 771 775 779 782 785 787 786 790 801 805 798 791 792 794 793 795 796 796 796 795 797 798 804 812 808 809 818 816 813 813 813 816 817 820 822 820 818 819 818 817 818 817 816 816 818 820 822 822 823 825 827
780 777 776 775 774 773 772 772 772 772 771 771 771 770 769 768 768 768 770 774 774 765 761 762 761 761 760 757 755 759 763 763 765 765 761 764 770 771 773 778 782 785 787 787 789 796 800 794 790 793 794 793 795 797 797 798 798 799 798 800 806 807 805 811 815 814 813 814 812 815 828 830 825 825 823 818 817 818 819 818 818 818 818 819 820 821 823 824
778 777 775 774 774 772 771 771 771 770 770 770 770 769 768 767 766 767 770 777 778 767 760 761 760 759 757 756 757 757 760 762 761 761 759 761 767 771 775 776 779 786 790 789 790 793 795 792 791 795 797 795 796 797 796 798 800 801 798 795 799 803 804 808 812 814 822 827 814 815 836 837 825 825 823 818 820 820 819 820 820 820 818 819 821 821 822 822
777 776 774 773 773 772 772 771 769 770 769 768 768 768 767 767 766 766 772 781 781 770 764 763 762 760 756 758 758 756 765 767 759 757 759 759 761 766 776 778 778 786 789 788 790 792 792 791 790 793 796 797 798 797 795 796 801 803 796 791 795 799 804 810 811 814 825 826 812 810 830 835 826 824 819 816 821 820 819 821 819 819 819 819 820 821 821 822
776 774 773 772 771 771 771 769 769 770 768 768 767 767 767 766 766 766 773 790 789 775 768 765 762 760 757 758 757 760 773 770 759 759 758 760 760 761 774 781 780 783 784 787 795 793 789 792 793 793 794 797 799 797 794 793 800 802 791 789 796 799 805 809 808 812 814 813 815 814 820 830 828 819 813 814 821 821 819 820 818 818 818 818 818 819 819 820
774 773 772 770 770 770 769 768 769 768 767 768 766 767 767 765 767 767 780 801 795 773 767 765 758 756 756 757 757 762 768 764 766 767 757 758 762 762 774 779 778 781 780 786 798 793 787 791 793 792 795 797 795 792 790 791 796 795 789 789 795 799 804 804 805 811 808 814 829 824 819 829 827 816 811 814 821 822 818 817 816 816 816 816 817 817 817 818
773 771 770 769 769 768 768 768 767 766 767 766 766 767 766 765 767 771 787 802 789 769 765 763 758 758 758 759 761 763 762 762 769 767 758 760 761 762 773 776 775 781 781 783 790 789 785 786 785 787 792 792 789 787 786 789 792 790 789 791 794 800 804 805 808 811 812 821 829 822 819 827 825 817 816 818 820 818 814 813 812 812 813 814 815 815 815 816
771 770 769 768 767 767 767 767 765 766 766 765 766 765 764 767 772 784 801 801 784 772 766 763 763 764 763 764 767 766 765 766 766 763 763 765 762 763 770 772 774 780 783 784 785 784 783 782 781 783 785 783 782 785 785 785 786 787 793 796 800 807 809 811 811 813 828 832 820 811 814 823 824 815 812 814 811 807 808 811 810 809 811 811 812 813 813 815
769 768 767 766 766 766 766 765 764 765 765 765 765 763 766 773 777 795 806 792 781 777 768 767 769 766 766 770 771 769 768 768 767 767 769 770 769 771 774 776 778 784 789 789 787 785 784 785 783 778 776 777 781 786 787 786 784 788 794 797 808 819 820 826 828 831 845 838 817 808 809 822 828 813 803 804 800 798 802 805 806 807 808 809 809 810 810 812
767 766 766 765 765 765 764 764 763 764 764 763 764 764 771 781 788 799 799 784 782 781 772 772 772 768 770 772 772 772 772 771 770 771 774 775 776 776 779 782 784 792 800 796 791 789 784 782 781 777 774 775 781 788 793 793 788 791 795 798 815 835 840 847 850 847 844 830 817 811 811 823 822 802 797 799 796 796 796 796 799 803 806 807 808 808 809 810
766 764 764 764 764 763 763 763 762 763 763 762 764 767 773 788 798 798 792 785 784 777 771 773 772 771 772 772 775 775 773 775 774 773 776 777 779 780 782 783 782 789 798 798 795 793 787 782 779 780 777 772 776 785 794 799 795 794 796 797 812 836 850 856 855 848 836 824 816 810 815 826 814 797 797 797 794 795 793 792 793 797 802 804 805 807 808 809
764 763 763 763 762 762 762 762 761 762 762 762 766 770 779 795 799 792 787 784 779 772 772 776 773 773 774 774 778 776 774 778 776 775 777 778 782 785 783 784 783 783 788 795 796 794 798 793 780 777 777 772 773 776 779 787 793 791 788 790 801 815 828 838 841 837 830 824 821 818 823 824 812 803 799 795 793 793 792 792 790 793 797 799 802 806 808 809
762 762 762 762 762 762 761 761 760 760 761 762 767 775 789 800 798 791 787 780 776 774 774 775 773 775 778 778 779 776 774 778 777 777 780 781 786 788 785 784 784 782 786 795 796 793 801 795 774 770 773 769 770 769 768 778 791 790 784 792 800 795 798 814 819 813 814 823 827 823 819 809 801 800 796 793 795 793 792 792 790 793 794 796 801 804 805 807
762 761 762 761 761 761 760 760 759 760 761 762 771 785 793 793 790 788 782 775 775 776 775 776 775 779 783 781 780 778 774 776 779 780 784 786 787 788 787 783 782 782 783 789 793 793 799 790 771 771 772 766 767 766 766 774 785 791 792 795 793 781 785 808 817 808 811 824 826 819 812 804 800 800 795 795 797 794 793 792 791 793 793 795 799 799 801 803
761 761 761 761 761 760 759 759 759 760 760 763 776 790 791 783 780 780 776 773 775 775 776 781 782 784 788 786 784 781 775 776 780 781 786 791 788 786 787 782 780 780 778 781 786 788 793 787 772 771 773 767 765 766 766 766 771 785 793 786 783 785 787 800 817 821 823 827 824 818 813 809 808 806 799 797 798 797 795 792 791 793 794 796 797 797 799 800
760 760 761 761 761 760 759 759 759 759 761 768 781 789 786 781 777 775 774 774 774 773 777 784 785 786 789 788 787 784 780 780 782 783 787 791 789 785 785 783 779 779 777 778 782 783 788 789 776 770 773 769 765 769 774 771 766 773 777 771 778 798 802 802 812 821 827 831 826 821 819 811 805 802 799 799 800 799 797 794 793 794 794 796 796 797 799 800
759 762 764 763 761 760 760 759 759 759 764 777 787 788 784 780 775 773 773 773 773 773 778 784 784 785 788 787 787 786 784 783 784 787 790 792 791 784 782 783 780 778 779 777 780 782 786 793 785 771 771 772 768 771 777 777 773 771 771 771 775 785 793 797 799 800 812 826 825 825 826 812 796 794 795 795 796 797 798 796 795 794 794 795 796 798 800 801
760 765 768 764 761 761 760 759 760 763 772 784 789 786 784 780 774 771 771 771 772 772 778 783 782 783 786 786 786 785 785 786 786 789 791 791 790 785 780 783 781 778 779 777 779 782 784 793 792 775 770 774 773 772 772 772 773 775 778 781 781 781 782 788 793 792 799 814 819 824 823 805 793 796 796 793 794 796 796 796 795 794 794 795 796 798 800 802
761 768 769 763 762 763 760 762 769 775 780 786 787 784 782 779 775 773 770 769 770 771 773 778 780 782 785 785 786 785 786 789 789 789 790 789 790 788 781 781 783 781 779 777 779 782 784 790 792 782 776 775 773 771 770 769 768 769 773 775 776 780 783 793 805 801 796 802 808 812 810 800 796 798 794 791 793 794 794 796 797 797 796 797 798 799 800 802
764 772 770 763 763 762 762 771 780 782 782 783 784 783 780 778 777 776 773 770 771 771 771 775 779 782 784 784 786 787 787 791 792 790 790 789 789 788 782 780 783 782 779 780 781 780 781 787 791 786 779 775 772 770 772 773 770 766 768 769 769 771 774 786 800 801 800 803 803 804 805 802 800 796 792 791 792 793 795 796 798 799 799 799 800 800 801 802
768 771 766 762 763 762 766 777 783 783 782 781 781 781 780 780 780 778 777 776 775 774 774 778 779 781 783 784 785 787 788 792 795 792 791 791 788 784 781 780 782 781 778 780 782 779 782 791 794 787 779 772 767 767 769 770 770 771 772 773 775 774 771 774 781 784 794 802 801 804 809 805 801 796 792 792 793 795 797 797 799 801 801 801 802 802 802 803
771 771 766 764 763 762 769 781 784 784 784 782 781 782 780 780 781 781 782 781 781 780 780 782 782 781 783 784 785 788 790 792 796 794 793 794 788 781 781 781 780 780 777 778 779 778 785 797 797 792 792 789 781 777 776 772 772 778 780 778 779 780 775 774 777 780 790 798 796 798 804 804 801 799 796 796 796 796 797 798 800 802 803 803 803 803 803 804
771 772 770 767 764 765 773 780 781 783 786 784 785 787 785 783 783 783 784 784 784 785 784 784 784 783 784 786 787 789 788 788 793 795 794 793 788 782 781 781 780 779 778 777 776 776 786 799 798 795 799 804 802 797 792 787 783 783 783 781 780 781 779 777 781 786 793 800 798 791 798 807 806 802 801 799 797 798 798 799 800 802 803 803 803 804 805 804
772 775 775 771 767 770 777 780 779 781 784 786 789 791 790 788 786 783 784 785 785 785 786 786 786 785 785 787 790 792 791 789 791 795 797 795 790 785 782 781 780 778 777 778 776 777 787 797 799 796 794 796 800 798 793 793 792 789 787 785 782 784 783 779 781 785 788 797 799 790 795 809 810 805 805 802 799 802 803 802 803 803 804 804 804 805 805 805
774 779 781 779 776 776 779 782 781 781 783 786 790 793 793 792 789 785 783 785 786 786 787 788 788 789 790 791 792 795 797 794 793 796 799 798 793 788 784 782 781 778 776 777 777 778 786 794 797 796 794 793 793 792 790 792 794 794 792 789 785 785 785 781 780 780 780 789 795 793 795 804 804 801 803 802 801 803 805 805 804 804 804 805 805 805 805 806
777 782 784 782 783 783 782 783 784 784 784 786 791 794 795 794 794 792 789 786 786 787 789 792 793 794 796 795 794 797 801 799 799 800 800 799 796 791 785 782 780 778 777 778 778 779 787 796 798 796 796 796 793 791 789 791 794 793 791 790 788 786 788 787 785 783 781 782 786 790 794 795 793 794 797 799 800 802 803 803 803 804 804 804 805 805 806 806
778 782 783 782 784 787 788 787 786 785 785 787 790 795 796 796 797 798 794 791 790 790 791 797 799 796 796 795 794 800 804 802 803 804 801 799 799 795 793 789 784 780 779 781 782 784 790 798 802 801 799 797 797 794 789 788 791 791 789 788 786 786 788 790 790 789 788 788 787 788 793 792 787 788 793 796 797 798 799 801 803 804 805 804 805 806 806 806
779 782 783 782 784 788 789 788 786 785 787 790 792 796 798 797 797 797 796 796 797 795 793 797 800 798 796 795 793 799 802 799 801 802 800 800 800 797 798 797 791 785 782 784 787 785 788 799 806 803 798 796 796 795 790 786 788 790 789 786 783 784 787 789 790 791 791 794 794 791 796 797 787 784 790 794 795 797 799 801 803 804 805 805 806 806 805 807
782 783 782 781 785 789 789 789 788 787 788 791 793 796 798 797 797 796 796 797 797 797 795 796 798 798 797 796 796 798 798 797 797 796 795 797 798 796 796 796 795 793 789 789 791 787 788 799 805 801 798 796 794 795 794 788 784 787 791 791 789 789 790 790 791 792 791 796 799 796 796 795 787 785 791 795 796 798 799 801 803 804 804 805 805 805 805 807
784 784 783 781 786 791 791 791 791 790 791 793 794 794 795 795 795 795 798 798 795 795 796 796 796 797 798 798 798 795 793 793 793 792 792 794 794 794 794 793 794 795 794 793 794 796 795 797 802 805 805 800 796 795 793 790 792 796 795 795 794 793 792 791 792 793 791 792 796 795 791 788 786 788 794 796 798 799 799 799 802 803 803 803 803 804 806 808
Wind_Speed
11 11 11 11 11 10 10 10 10 10 10 10 10 10 10 9 9 9 9 8 8 9 10 10 9 9 9 8 10 10 11 11 10 6 8 11 11 13 9 9 16 17 22 23 21 20 13 9 11 12 8 4 2 2 4 3 2 2 1 1 0 2 2 4 7 6 7 11 11 9 8 10 12 9 7 8 10 11 10 9 9 9 11 15 19 23 23 21
12 12 12 11 11 11 10 10 10 10 10 10 10 10 10 10 9 9 9 8 8 9 9 9 9 9 9 9 9 10 11 12 9 9 14 14 8 11 13 12 18 21 25 26 22 19 14 11 12 11 7 3 2 2 2 2 2 2 1 1 1 0 1 2 6 6 7 12 13 10 9 10 13 11 8 9 11 11 12 10 11 13 14 17 21 22 21 21
13 12 12 12 12 11 10 10 10 10 10 10 10 10 10 10 10 9 9 9 8 8 8 8 9 9 9 8 9 10 10 9 6 6 8 8 10 11 14 17 20 23 26 27 24 20 16 14 14 11 5 3 2 2 2 2 1 2 1 1 1 1 2 2 5 5 7 13 14 12 10 10 11 10 7 10 13 11 11 12 12 14 16 18 19 21 22 20
13 13 13 13 12 11 10 10 10 10 10 10 10 10 10 10 10 9 9 9 8 7 7 7 8 8 8 8 8 8 8 5 2 1 5 1 11 13 15 20 22 23 25 25 22 18 17 16 13 8 5 3 2 2 2 3 1 1 1 2 3 2 2 3 4 7 9 12 12 12 12 11 9 7 8 13 12 8 9 11 14 17 19 20 19 20 21 19
14 13 13 13 13 12 11 10 10 10 10 10 10 10 10 10 9 9 9 8 7 6 7 7 7 7 7 7 6 7 5 2 1 2 4 3 11 17 16 21 24 23 23 22 18 16 16 15 10 6 3 3 3 3 2 3 3 1 1 2 3 2 2 4 5 9 11 11 11 12 13 11 9 7 10 11 7 6 8 10 14 18 19 20 20 20 19 19
14 14 13 13 13 13 11 10 10 10 10 10 10 11 10 10 9 9 8 7 6 6 7 7 6 6 5 5 4 4 3 2 3 3 3 3 13 20 17 23 24 23 23 19 16 15 14 11 8 6 4 2 4 4 1 3 4 1 1 2 3 3 3 3 5 9 11 11 11 11 11 10 10 9 8 5 3 7 10 10 14 16 19 21 20 20 18 17
15 15 14 14 13 13 12 10 10 10 10 10 11 11 10 9 9 8 8 7 6 5 6 6 6 4 3 3 2 2 2 3 6 5 3 1 16 20 19 23 24 25 23 18 15 14 13 10 7 6 5 3 3 5 2 2 5 3 2 4 4 4 4 4 6 8 10 11 10 10 10 10 10 10 7 4 6 11 12 13 16 18 21 20 18 17 16 15
16 16 15 14 13 13 12 10 10 10 10 11 11 11 10 9 8 8 7 7 5 5 5 5 5 3 2 3 1 1 1 4 7 6 2 10 21 20 21 23 23 26 23 18 15 13 13 11 8 7 5 3 2 4 3 2 5 5 1 4 4 4 5 5 8 10 10 9 9 10 10 8 8 9 6 5 9 13 14 16 18 19 20 18 16 15 14 14
17 16 15 14 14 12 11 11 10 10 10 11 11 11 11 9 8 7 7 6 5 5 4 3 3 1 2 2 1 1 0 4 7 4 4 17 22 22 24 23 23 25 21 17 15 15 12 9 9 6 3 4 2 2 3 3 2 4 3 5 5 6 6 6 9 10 9 7 9 12 9 6 6 6 6 6 11 15 16 18 18 19 18 16 14 14 13 13
17 16 16 14 13 12 11 11 11 11 10 10 11 10 11 9 8 7 6 6 5 5 3 2 0 2 1 1 0 1 1 8 9 3 11 20 22 24 25 23 24 23 18 14 13 14 8 6 9 3 1 3 1 2 2 4 2 6 7 8 7 8 7 6 9 9 9 7 8 12 10 6 3 1 4 7 12 15 17 18 18 18 17 15 13 12 13 13
18 17 16 15 14 12 11 11 11 11 11 10 11 10 10 9 7 6 6 6 5 4 2 1 2 3 2 1 1 1 1 7 11 2 16 23 23 26 25 24 25 21 17 11 10 11 4 4 8 3 1 2 1 2 1 2 5 10 11 11 8 7 7 6 8 9 8 4 5 10 10 7 3 1 6 11 13 15 17 18 18 17 15 14 14 12 11 11
18 17 17 16 14 13 12 11 11 11 11 11 10 10 9 9 7 6 6 5 4 3 2 2 4 5 3 1 4 4 3 6 10 2 19 24 22 22 20 23 24 20 18 11 8 10 3 3 6 5 1 1 2 1 2 1 8 10 8 8 7 7 6 5 5 5 6 4 5 8 8 6 4 4 9 13 13 14 16 17 17 16 14 13 13 11 10 11
19 18 17 16 14 13 12 12 12 12 12 11 10 9 7 7 6 5 5 2 2 2 3 3 5 5 1 1 3 3 5 6 4 7 20 21 17 14 14 20 20 18 18 12 11 13 6 4 1 5 1 2 1 2 2 2 7 7 4 5 6 5 4 3 3 4 6 6 5 3 4 6 6 7 11 13 13 15 15 16 16 14 13 12 11 10 10 11
19 18 17 16 14 13 12 12 12 12 12 11 9 8 6 5 4 3 2 1 2 3 4 5 5 4 0 4 2 2 4 2 3 11 19 18 14 11 12 16 14 13 12 8 10 13 9 3 3 2 1 2 2 3 2 4 7 6 4 4 3 3 5 3 2 5 6 4 2 0 2 5 7 9 11 12 14 16 14 15 15 14 12 11 11 10 10 11
19 18 17 16 14 13 12 12 12 12 11 11 8 5 3 2 0 1 2 2 2 5 6 5 4 2 2 5 3 1 1 1 5 12 16 17 14 11 12 14 11 13 11 6 6 8 9 2 2 2 1 1 1 2 3 5 4 4 4 3 2 2 4 4 2 2 4 4 1 1 2 4 7 10 11 12 13 14 14 15 15 14 13 12 10 10 9 10
19 18 17 16 14 13 12 12 12 11 10 8 5 2 0 2 3 4 6 5 4 7 6 3 2 0 1 2 0 1 1 1 5 10 14 14 12 10 15 15 10 10 9 6 5 3 5 4 1 1 1 1 2 3 5 4 4 3 2 3 4 4 4 4 4 2 2 6 3 1 2 4 6 10 11 13 14 13 13 14 15 13 12 12 10 10 9 10
19 18 17 16 14 13 12 11 11 10 8 6 2 2 4 4 5 6 7 6 6 7 5 2 1 1 2 2 1 0 0 2 4 9 15 10 9 15 19 12 7 8 7 4 3 4 5 3 1 0 1 1 1 3 5 3 5 4 2 2 3 4 4 4 5 5 5 8 5 1 2 3 7 12 12 14 15 12 13 14 14 12 11 10 9 9 10 10
19 18 17 16 14 13 11 11 10 8 6 3 3 6 6 7 7 8 8 8 6 5 3 1 1 1 2 2 1 0 2 0 4 9 14 8 9 17 15 8 9 10 8 5 2 2 4 1 1 1 2 1 2 5 4 2 4 5 3 2 3 4 5 3 4 7 8 8 7 5 2 3 9 13 11 14 16 12 13 14 13 12 11 11 9 9 10 10
20 18 16 15 14 12 11 10 9 6 5 5 9 10 9 9 8 7 6 5 3 2 1 1 2 1 1 1 2 5 5 1 4 8 12 12 13 13 11 11 11 9 9 6 2 2 3 2 1 3 3 3 4 5 2 1 5 8 6 2 4 4 4 4 4 7 10 8 7 7 4 5 10 13 11 13 15 13 12 12 11 11 11 10 9 9 9 10
20 18 16 14 13 12 10 10 8 4 4 7 12 9 5 3 2 2 2 2 4 4 4 2 3 3 4 2 4 6 4 1 2 6 13 15 15 10 9 10 8 5 7 8 5 3 3 4 4 4 4 4 5 4 2 2 6 9 8 4 4 4 3 5 5 7 11 7 6 7 5 6 10 13 12 11 13 14 13 12 11 11 10 10 10 10 10 10
20 18 15 13 13 11 10 10 6 4 3 8 9 3 1 1 1 2 1 3 5 6 6 4 3 6 7 4 4 4 3 3 4 5 13 15 13 9 5 5 9 6 4 6 8 3 2 5 6 4 3 3 2 3 3 3 4 6 6 5 3 3 3 3 5 9 10 5 3 5 5 6 9 12 12 10 13 16 15 14 13 13 12 10 11 11 10 10
20 17 15 12 12 10 10 10 3 4 3 7 7 1 1 1 4 4 2 3 4 4 5 4 3 7 8 7 7 3 1 2 6 5 10 12 7 4 2 4 8 7 3 6 8 4 4 6 6 2 1 3 0 4 3 3 4 4 4 5 4 4 5 3 4 8 6 2 3 5 6 6 8 11 11 11 12 11 11 14 13 14 13 10 11 11 10 10
19 17 14 11 10 9 10 8 2 3 2 6 6 3 1 4 5 6 3 2 3 1 2 3 3 5 5 4 5 6 3 2 4 5 9 11 4 2 5 5 6 7 6 7 7 6 5 4 4 4 3 4 1 3 4 3 3 2 3 4 4 7 6 3 5 5 2 1 3 7 5 3 6 9 10 11 10 6 4 8 11 12 13 12 12 11 11 12
19 15 13 10 9 8 9 5 2 1 2 4 6 3 4 8 3 9 4 1 2 2 1 3 3 4 3 1 6 7 3 2 3 5 10 9 3 2 4 4 6 8 5 6 7 6 4 3 5 6 5 4 3 2 3 4 3 2 3 2 4 8 5 3 8 7 4 1 3 7 4 2 5 8 10 11 10 7 4 6 8 10 11 12 12 12 12 12
19 14 11 10 7 6 7 2 3 3 5 3 4 2 9 9 2 9 3 1 0 1 1 2 2 3 2 1 5 4 1 2 2 4 8 8 5 3 2 2 3 6 5 5 6 4 4 5 7 6 4 4 4 4 3 4 3 2 5 4 4 9 5 8 13 10 6 4 5 8 4 2 6 9 11 11 11 11 7 7 9 10 10 11 11 12 12 11
18 13 10 9 6 4 5 1 1 5 4 2 1 5 10 7 4 8 1 1 2 2 1 1 1 1 1 1 3 2 2 3 0 2 7 9 6 3 3 1 0 3 5 5 3 2 2 5 7 6 6 6 5 5 3 3 3 2 5 6 6 8 9 13 15 10 5 4 6 8 5 2 5 9 12 12 14 16 11 9 10 9 10 11 11 11 11 11
17 11 9 8 5 2 2 1 1 4 2 2 2 6 10 5 6 6 1 1 3 2 2 1 0 1 1 2 2 2 3 3 2 3 3 5 4 1 3 3 1 3 4 3 2 2 4 6 6 5 6 6 4 5 3 4 5 1 3 9 9 8 11 15 14 7 3 3 6 8 4 2 3 7 12 13 15 17 15 14 12 10 10 11 12 12 12 12
15 10 9 7 6 4 4 3 3 3 2 2 3 6 8 1 6 2 2 2 2 1 1 1 1 0 0 2 2 0 1 2 3 2 1 3 3 1 3 5 4 5 4 4 4 2 4 7 7 7 6 5 4 4 5 7 5 0 4 10 10 7 8 12 10 5 3 4 5 8 6 4 2 4 9 13 14 17 19 20 16 13 12 11 11 13 14 12
14 10 9 7 7 5 4 5 4 3 3 3 5 7 3 3 4 1 1 2 2 1 0 1 1 1 1 2 1 2 1 1 1 1 1 3 2 2 2 3 3 5 3 2 4 2 1 4 6 8 6 5 6 5 8 10 4 2 5 8 10 7 3 5 6 3 4 5 6 10 10 6 2 4 8 11 13 16 17 18 17 14 12 12 11 12 13 12
13 10 9 7 6 4 4 6 5 3 4 5 7 4 3 4 1 0 2 3 2 1 0 2 2 1 0 2 1 3 2 1 2 2 1 2 2 4 2 2 3 4 2 1 3 3 0 0 2 5 5 5 5 4 6 9 6 7 7 6 8 7 4 1 2 1 4 6 4 9 13 6 2 4 7 9 7 11 14 14 16 16 14 13 11 12 12 11
12 10 8 7 6 4 3 3 3 3 5 6 4 0 4 1 1 1 4 2 2 1 1 1 1 1 2 2 1 1 1 1 2 2 3 2 2 3 1 2 2 2 2 1 3 2 1 2 3 4 5 4 4 3 1 3 7 8 7 6 7 5 3 1 0 1 5 5 1 4 11 8 5 2 5 7 4 5 13 15 15 16 15 13 11 11 11 10
11 9 8 7 6 6 5 3 5 6 7 4 1 2 2 0 1 2 2 1 1 1 0 1 1 1 2 1 1 1 1 1 2 1 3 2 3 3 1 1 2 2 2 2 2 1 3 4 2 2 4 6 6 5 2 1 5 6 6 8 7 4 4 3 2 2 6 3 3 2 10 7 6 2 2 7 6 4 8 11 14 15 14 13 11 10 10 9
9 8 6 6 7 8 7 7 8 8 5 1 1 1 1 2 3 1 1 1 1 1 0 1 1 1 2 3 2 1 1 1 1 1 2 1 1 3 1 2 1 1 1 1 1 1 3 2 3 3 3 6 8 6 4 4 6 7 8 8 7 6 6 6 4 3 5 2 3 3 8 4 5 1 1 3 5 3 3 6 11 14 14 14 12 10 9 9
7 5 4 5 6 6 7 7 7 5 2 2 2 1 2 3 2 1 2 1 1 1 1 1 0 2 2 2 1 1 1 2 1 1 2 1 1 1 1 2 1 1 0 1 1 1 2 1 5 6 3 6 11 8 5 7 8 9 7 5 5 6 6 6 6 5 3 3 4 5 6 4 2 1 1 2 3 3 4 4 7 13 15 13 11 10 9 9
3 2 3 4 5 6 6 5 4 3 2 2 1 2 3 2 1 2 1 2 2 1 2 1 1 2 2 2 2 1 0 2 2 2 3 2 2 1 1 1 0 2 2 2 1 1 2 3 2 2 1 7 12 8 5 8 8 6 5 5 5 6 5 2 3 4 2 3 3 5 4 2 1 0 2 1 2 3 6 7 8 12 14 13 12 12 11 10
1 1 2 3 8 8 5 3 1 2 2 1 2 4 3 1 1 1 1 2 2 2 1 1 2 3 2 1 2 2 1 1 1 1 3 2 1 1 0 1 1 3 3 3 2 1 1 1 1 0 3 8 8 7 8 7 5 4 5 7 3 1 3 3 1 1 1 3 3 4 4 1 1 2 1 2 1 2 6 10 10 11 14 15 13 13 13 12
1 2 3 6 12 9 2 1 0 1 1 1 4 3 0 1 1 2 2 2 1 1 0 1 2 2 1 1 1 2 2 1 0 0 2 1 1 1 2 2 1 2 3 3 2 1 2 3 1 2 4 4 1 3 6 4 3 5 6 7 4 1 1 2 2 2 3 6 3 3 6 4 3 3 2 3 3 4 6 10 11 11 13 14 12 12 12 11
1 2 3 8 14 7 2 2 1 1 1 3 3 2 0 1 0 2 2 2 1 1 2 1 1 1 1 1 1 2 2 1 0 1 2 1 1 1 2 2 2 1 3 3 2 1 2 4 1 1 2 1 2 4 4 2 1 1 4 8 5 3 4 2 3 4 5 6 3 3 4 5 5 4 3 6 6 6 8 9 10 12 13 13 11 10 10 9
2 2 1 9 12 3 2 1 2 2 2 3 2 1 0 2 2 2 2 1 1 1 2 1 1 1 1 1 1 1 2 1 1 1 1 1 1 1 1 1 1 1 2 2 2 1 1 2 0 2 0 1 2 5 6 6 3 1 3 7 3 2 4 4 2 3 4 5 4 4 3 4 5 2 3 7 8 8 10 10 10 11 11 10 10 9 9 9
2 1 1 9 10 1 0 3 3 3 3 2 1 0 1 2 2 3 3 1 0 1 2 1 1 1 2 1 1 1 3 2 2 1 1 1 1 1 1 1 2 3 2 1 1 1 1 1 1 0 0 2 3 3 4 5 6 5 5 7 4 0 1 2 1 0 2 4 4 4 4 3 1 1 1 6 8 9 10 10 9 10 10 8 9 9 9 8
1 1 1 8 8 1 2 3 3 3 1 1 0 1 1 2 3 5 5 3 2 2 2 1 1 2 1 1 2 1 2 2 2 2 1 1 1 0 2 1 2 3 1 1 2 1 1 1 2 2 1 2 0 2 2 2 2 4 7 8 7 4 4 5 4 1 1 2 2 4 5 1 2 1 2 5 7 8 9 9 9 9 10 9 8 10 10 9
1 1 1 8 7 2 2 3 1 1 1 1 1 1 2 3 3 5 6 5 3 2 2 3 2 2 2 1 2 2 2 2 2 1 2 2 1 1 2 3 2 3 1 0 1 1 0 1 1 3 2 2 3 2 1 1 1 1 2 4 4 4 6 8 7 4 3 1 1 1 3 1 2 0 3 6 6 6 7 8 8 8 9 9 9 10 10 10
1 1 1 7 6 2 1 2 0 1 1 1 1 1 2 2 2 4 5 5 4 3 3 3 2 2 3 2 1 2 3 2 3 3 1 2 2 1 5 6 3 2 1 1 1 1 1 1 1 1 1 1 1 1 3 2 2 3 3 2 0 2 2 3 3 4 5 4 3 3 3 1 2 2 4 6 7 7 7 8 8 8 7 9 10 10 9 10
1 0 1 6 5 1 1 2 1 1 1 1 2 2 2 2 4 5 5 6 5 3 2 3 2 3 4 2 2 3 2 1 3 3 1 1 2 2 4 6 4 1 1 1 0 1 1 1 1 1 1 2 3 3 3 2 1 2 3 3 2 2 1 3 2 2 4 3 2 5 4 2 3 4 5 7 9 9 8 8 8 7 7 8 9 8 8 8
1 1 1 5 6 2 1 1 1 2 1 1 3 3 2 2 3 3 3 5 4 3 2 2 1 2 3 2 3 5 5 3 2 2 1 1 2 2 3 6 6 3 2 3 2 1 1 1 1 2 2 3 3 2 2 1 3 2 2 4 4 2 0 2 3 3 5 3 2 4 2 3 5 6 7 9 10 9 8 8 8 8 7 7 7 7 7 7
0 1 1 2 4 4 2 1 1 2 2 2 2 2 2 2 1 1 1 3 4 4 3 3 2 1 2 3 3 5 8 6 3 2 2 2 2 2 3 5 5 5 5 4 3 1 2 2 2 2 2 3 2 1 1 1 2 3 4 7 6 3 3 2 3 4 3 4 4 3 2 6 9 10 10 11 11 10 9 9 9 8 7 7 7 7 7 7
1 1 1 0 1 2 2 2 2 1 1 1 1 1 2 1 1 1 2 2 3 3 2 4 5 2 2 3 3 4 5 5 4 4 3 3 2 3 4 4 4 9 8 4 3 1 2 3 3 4 5 4 2 1 1 0 1 4 6 8 8 6 4 2 3 2 5 5 4 3 7 10 12 14 14 12 11 10 10 9 9 8 8 8 7 7 8 8
1 1 0 1 0 1 2 2 3 3 3 1 1 1 2 3 3 2 2 1 2 3 2 3 7 6 2 1 2 2 3 3 4 3 2 2 2 3 3 1 3 9 8 3 4 2 2 3 3 2 2 2 1 3 2 2 2 4 7 9 9 8 5 3 3 2 2 3 2 7 12 9 10 15 15 12 11 11 11 10 9 9 9 9 9 9 9 8
1 2 0 1 0 1 1 2 1 3 4 2 2 2 1 3 4 2 2 2 3 5 3 3 5 7 4 1 1 2 1 2 4 3 2 3 2 2 3 2 3 7 6 4 4 2 1 2 3 1 1 1 1 3 1 5 3 5 8 8 9 8 6 3 3 3 2 4 3 8 12 6 6 13 13 11 11 11 11 10 10 11 11 11 10 10 10 9
1 1 0 1 2 1 1 1 0 2 2 2 2 2 1 2 3 2 1 3 3 3 3 3 3 4 5 5 4 4 2 1 3 2 1 1 2 2 2 1 1 6 6 4 2 2 1 1 2 2 2 3 2 6 3 3 5 5 9 10 11 9 6 4 3 2 2 3 2 7 9 4 5 11 13 12 12 11 12 12 11 11 11 11 11 10 10 10
2 1 1 1 2 2 2 1 1 1 1 1 1 2 2 2 2 2 2 2 2 2 2 2 3 1 3 6 6 4 1 3 2 1 1 1 2 3 2 0 1 4 5 3 2 3 2 1 1 2 1 1 4 8 7 0 4 5 9 11 10 8 4 3 3 1 2 0 4 6 5 4 7 12 13 14 14 14 14 14 11 11 11 12 11 11 10 10
3 1 1 0 1 2 1 1 1 1 1 1 1 1 1 2 2 1 3 1 1 3 1 1 2 1 2 4 4 3 2 4 4 3 2 1 2 2 2 2 2 2 3 1 1 2 1 1 1 1 1 1 6 8 7 3 2 2 5 7 6 4 2 3 2 1 1 2 5 3 1 2 10 15 15 15 15 15 14 13 11 11 12 12 11 11 10 10
Wind_Direction
347 345 342 340 337 334 332 329 327 324 323 320 318 316 314 313 310 308 307 311 315 311 310 314 318 317 316 319 318 320 324 321 310 283 239 262 260 229 227 183 179 167 163 162 143 135 134 137 147 155 162 161 166 171 191 217 215 233 302 42 229 175 153 163 167 150 135 143 145 151 149 136 132 121 116 113 108 112 103 91 96 96 99 108 118 130 139 143
343 342 340 339 337 334 334 332 330 327 324 322 320 318 317 314 312 309 306 308 306 306 309 311 315 315 318 324 320 326 330 320 298 265 256 268 268 218 207 177 175 171 165 162 153 146 143 148 151 154 164 153 165 179 188 204 210 248 313 37 271 263 53 151 157 135 138 150 147 149 148 143 137 132 140 133 125 122 111 110 114 111 111 116 125 133 141 146
341 340 338 338 337 335 335 335 335 332 329 326 322 320 318 315 313 310 308 305 300 301 305 306 312 315 322 325 324 333 330 318 283 261 287 267 231 212 186 171 176 174 171 170 166 158 146 147 153 152 155 154 168 180 200 205 204 230 253 341 325 349 28 97 148 136 136 146 145 147 145 141 140 140 150 141 137 136 131 135 135 131 134 136 138 141 146 150
342 339 337 336 336 336 335 333 333 333 332 330 326 322 317 315 311 306 305 300 296 298 301 302 308 316 325 326 326 338 323 295 259 287 360 358 188 189 179 171 176 175 173 174 169 159 145 143 152 150 149 159 162 195 222 207 203 208 224 343 358 339 51 85 136 135 134 143 138 140 142 139 141 141 146 143 142 146 149 151 149 148 148 147 147 148 151 153
342 339 336 334 334 336 334 329 329 329 330 331 332 329 321 317 311 306 302 297 299 296 299 300 310 321 325 333 338 344 320 226 72 24 9 358 170 172 178 172 175 174 170 169 158 148 145 145 149 145 155 164 164 197 230 210 217 242 251 314 347 328 47 89 134 132 133 135 129 139 143 142 142 138 150 152 148 148 154 158 153 150 150 151 150 150 154 154
341 339 337 333 333 334 334 329 327 326 327 329 332 333 327 321 314 310 304 298 298 289 298 303 313 324 327 349 358 348 308 208 345 331 355 345 166 166 175 172 171 170 165 157 143 142 147 152 158 153 168 167 179 208 263 205 214 254 337 7 17 12 45 90 131 129 134 133 134 143 139 142 142 136 152 149 107 128 138 147 149 146 147 149 149 151 155 156
342 341 340 337 334 334 334 329 326 326 327 327 327 328 328 321 312 310 304 296 294 290 300 307 315 329 356 20 19 358 279 273 329 318 321 150 160 163 170 168 166 167 162 150 143 151 150 159 170 153 163 159 192 227 260 209 206 248 351 60 78 81 77 105 133 133 132 127 127 135 135 144 143 138 148 111 105 128 131 137 143 145 148 148 150 154 157 156
346 345 343 340 337 335 334 329 327 326 326 327 325 325 326 321 311 307 301 293 293 293 294 305 323 346 40 42 13 340 249 288 329 333 320 154 155 160 161 158 164 165 160 153 151 157 154 161 165 147 170 176 181 226 241 217 194 226 286 93 127 107 85 101 128 132 118 113 122 127 127 128 128 132 131 115 128 133 132 137 142 147 151 152 152 154 155 155
348 346 344 342 339 337 334 330 327 326 329 328 325 325 324 319 310 300 294 291 286 288 292 299 321 51 72 53 5 295 257 349 350 352 153 158 158 160 157 153 162 164 159 156 153 158 161 168 166 156 192 176 182 250 231 230 192 193 168 122 134 113 99 101 116 124 113 118 133 122 111 102 112 122 112 121 137 135 135 139 145 150 155 157 153 153 156 156
349 348 346 343 341 339 336 331 327 327 329 329 326 324 322 317 305 294 287 283 277 282 285 275 257 102 89 139 172 223 70 24 17 63 159 163 158 156 158 155 158 160 158 157 158 164 170 173 161 156 232 145 181 294 247 238 133 131 130 112 116 115 118 116 113 122 116 119 135 125 115 109 117 131 125 138 142 139 139 141 148 154 157 159 154 154 159 158
352 350 348 346 344 342 338 332 328 327 330 331 326 321 319 314 302 292 283 276 275 280 266 224 158 136 128 157 218 216 139 15 10 60 163 164 159 158 164 164 161 159 153 155 173 173 164 155 156 163 208 124 268 287 301 231 132 127 118 104 107 111 117 120 120 132 127 106 116 118 110 113 128 130 139 146 149 145 142 145 153 157 158 160 157 156 162 162
354 352 350 348 347 344 339 335 332 331 332 329 323 319 313 308 302 293 285 278 271 256 190 164 151 142 126 187 236 229 247 334 355 123 163 162 162 163 168 170 172 170 158 154 178 184 159 108 172 190 156 18 283 303 21 123 142 138 122 108 115 116 118 119 123 140 137 119 108 108 112 138 146 123 140 147 152 150 144 149 155 157 159 161 160 158 166 170
356 354 352 349 348 344 340 337 334 333 330 324 319 315 306 300 301 294 287 279 244 178 125 141 147 136 131 253 232 252 287 311 2 149 162 164 163 160 167 168 175 181 173 169 175 182 164 63 171 186 114 333 311 335 308 195 159 151 132 127 133 138 136 118 144 149 130 119 110 118 154 165 145 126 146 152 151 151 149 154 157 157 161 163 163 162 170 177
357 355 352 349 348 344 341 337 334 331 326 320 315 310 306 298 294 298 298 220 181 132 115 136 140 113 183 262 269 336 314 310 125 157 165 168 154 135 155 160 159 167 166 170 178 189 185 67 12 171 146 314 326 321 269 163 165 156 140 151 160 165 145 120 163 157 137 124 95 172 180 163 150 138 150 158 154 154 154 159 161 159 162 164 167 167 172 181
356 355 351 349 346 342 341 338 333 331 325 317 311 308 308 302 350 86 103 123 142 128 121 132 138 109 280 274 281 336 321 114 152 170 172 172 154 131 151 151 139 148 138 115 144 190 202 205 347 201 197 272 271 262 148 140 166 170 161 171 189 179 145 127 151 179 148 139 115 278 161 145 154 151 154 161 159 158 157 161 165 162 163 166 168 171 174 183
355 353 351 349 344 342 343 339 335 334 327 317 311 308 103 101 103 103 102 101 111 123 127 137 132 189 253 295 358 162 248 131 148 171 171 174 172 149 147 142 127 142 142 115 100 129 180 199 267 301 308 237 211 160 143 143 164 183 220 182 174 171 158 143 151 197 152 140 146 292 152 129 152 158 155 163 165 162 159 162 168 165 164 168 169 173 177 182
353 351 351 348 343 343 343 339 340 339 333 330 338 117 110 106 108 102 100 101 107 121 132 140 43 283 250 288 307 140 326 111 125 166 169 178 188 154 139 130 115 126 135 133 92 93 143 179 214 327 262 224 229 165 163 178 176 182 210 174 171 164 164 152 153 174 163 157 170 181 116 107 150 159 155 167 171 165 163 164 169 168 165 169 172 174 178 182
351 350 350 347 342 342 342 344 349 348 351 14 112 120 110 103 94 93 106 110 109 124 133 141 282 255 228 283 319 343 318 48 113 151 164 163 159 147 134 122 128 129 124 128 120 116 145 171 260 229 224 198 204 195 182 186 182 169 166 180 166 168 186 180 158 169 167 170 174 160 128 108 149 157 156 171 175 170 168 166 167 169 167 170 176 178 179 184
350 348 348 346 341 340 340 349 360 9 29 90 124 123 118 107 93 94 107 113 129 219 272 187 227 291 262 279 304 312 312 266 129 140 152 145 141 134 118 123 133 137 143 150 155 143 153 149 178 216 214 198 197 205 196 205 200 172 162 202 180 173 198 189 172 172 173 173 169 167 157 137 158 164 159 168 178 179 172 166 167 168 168 174 180 182 180 186
349 346 347 344 339 339 339 352 12 46 76 125 134 127 120 101 89 99 110 182 219 259 291 206 197 281 291 282 312 326 335 170 134 144 156 151 143 126 108 124 133 147 156 151 144 149 178 176 201 214 202 208 205 192 136 156 211 183 158 166 190 184 181 182 181 171 175 176 166 174 163 150 170 173 162 159 174 184 180 171 172 171 173 179 185 186 180 188
348 345 345 344 338 337 340 352 27 79 95 153 156 136 105 51 340 329 303 237 227 236 253 234 211 265 276 278 299 335 32 102 79 125 160 156 152 141 121 145 147 151 161 130 122 125 190 194 214 222 219 247 222 147 126 117 179 186 162 153 191 200 161 172 178 164 176 195 169 174 172 163 177 177 165 158 174 187 186 179 177 177 179 181 187 189 183 188
348 344 343 343 338 336 341 350 50 93 95 169 186 238 203 250 286 272 269 279 263 222 233 244 249 269 270 268 261 257 55 112 95 111 158 158 166 166 154 183 156 143 144 126 123 136 183 211 219 193 199 250 80 119 148 130 142 174 172 163 189 182 130 117 158 153 166 225 174 180 195 180 177 178 171 170 178 184 187 186 183 180 180 183 189 190 188 188
347 342 340 343 341 336 339 351 79 95 93 179 200 219 260 316 275 219 201 296 289 219 182 208 228 253 264 268 222 189 163 160 129 133 169 166 171 189 158 163 145 135 144 145 145 161 180 212 188 146 167 202 174 115 139 142 155 172 173 166 176 175 159 143 162 151 144 274 186 181 197 187 173 178 180 184 179 157 162 183 183 185 185 187 190 192 193 192
346 341 338 343 344 338 339 352 128 46 336 210 208 217 339 343 251 193 189 308 287 291 210 200 212 223 260 303 165 171 152 162 157 148 172 168 134 169 160 132 137 139 136 140 150 165 157 117 126 144 173 197 213 178 154 178 190 175 196 196 159 175 183 140 151 154 150 189 187 173 181 221 194 196 195 191 186 172 159 170 176 186 189 187 191 195 198 198
345 339 336 341 343 341 346 360 162 350 337 233 211 337 352 352 175 176 186 312 206 307 209 182 223 212 238 83 151 180 119 148 192 149 166 167 139 149 151 121 160 147 130 134 147 175 163 133 138 144 159 184 208 219 200 202 203 196 209 208 170 178 161 133 150 153 162 195 200 190 209 220 193 208 204 189 192 194 183 182 185 184 186 187 192 198 200 199
344 339 332 336 339 349 359 78 164 345 331 222 236 350 350 351 151 158 189 322 94 3 325 163 206 178 169 135 150 207 162 145 212 130 163 167 142 134 156 144 333 142 144 138 146 204 149 146 161 157 159 169 196 226 210 187 211 224 194 177 177 179 151 149 163 163 177 195 185 197 231 227 184 210 208 190 195 200 192 194 196 185 184 188 192 197 198 197
343 336 326 326 329 328 323 242 300 327 298 234 298 337 341 340 156 155 272 99 104 2 307 290 32 96 125 153 171 206 161 124 105 108 158 171 140 65 164 158 163 142 139 144 174 195 143 150 164 155 160 168 192 221 193 182 212 236 149 162 166 169 158 162 174 182 182 123 145 187 228 275 222 206 200 194 197 203 202 203 201 195 191 189 191 195 197 198
341 331 319 318 317 302 279 265 276 278 260 260 288 324 338 344 153 172 287 115 80 315 267 325 307 288 356 143 155 199 89 93 137 126 23 150 129 15 163 177 188 149 134 189 198 162 155 174 176 165 172 188 204 212 175 183 215 317 137 157 151 158 175 175 182 195 180 154 173 193 204 242 237 161 185 193 198 207 208 208 204 198 196 191 190 194 197 200
340 326 312 311 309 302 281 271 267 251 239 254 301 324 343 135 134 266 262 87 5 315 146 333 302 284 323 116 92 32 57 46 113 105 32 125 111 34 148 172 164 138 119 228 215 190 178 197 186 178 189 203 201 195 175 184 202 77 138 152 134 137 163 182 198 202 185 211 223 196 194 227 224 145 178 191 203 213 210 210 208 200 197 194 190 194 195 195
337 320 307 304 304 301 289 285 271 236 249 287 314 325 136 136 142 240 75 55 337 320 341 302 307 311 110 135 57 18 46 35 51 89 89 109 76 46 77 113 100 135 116 5 244 235 329 109 173 190 203 204 194 184 181 186 159 116 138 137 112 115 105 133 226 220 202 228 238 189 189 219 258 163 178 186 201 211 206 209 208 199 197 196 193 195 193 191
331 313 299 294 293 279 275 298 273 249 291 308 319 134 141 131 286 102 66 44 271 307 343 280 321 33 108 153 186 36 57 39 40 117 132 133 125 88 120 158 112 140 159 201 238 259 277 190 179 207 206 180 155 149 168 194 153 140 154 142 111 107 116 135 322 347 223 225 339 176 181 202 246 194 174 191 182 188 199 204 199 193 194 194 193 193 190 188
323 304 288 281 277 261 256 282 292 300 309 315 15 114 173 206 42 59 43 335 299 332 333 316 359 98 109 116 105 41 94 79 39 104 132 146 169 160 181 191 165 198 218 220 212 238 245 212 183 219 201 178 169 155 110 154 179 175 169 158 146 135 149 190 206 205 221 221 22 177 175 195 252 257 164 204 202 180 197 202 191 185 188 188 187 186 183 184
313 292 278 274 276 272 281 291 293 302 305 277 92 100 163 83 53 18 268 292 2 8 49 7 14 92 131 126 87 7 35 58 2 88 89 52 158 163 93 61 152 218 243 221 224 230 224 185 163 183 186 186 190 183 157 161 193 195 178 175 172 159 171 195 190 202 222 200 49 158 174 207 260 242 99 216 218 201 211 216 189 179 184 186 181 175 174 179
303 282 278 282 291 301 312 305 289 290 279 153 140 142 82 65 39 291 271 285 300 321 22 3 32 71 77 98 52 275 143 63 24 95 101 108 125 145 121 98 152 231 13 217 230 239 237 212 176 180 171 175 188 206 188 150 175 196 194 205 198 177 189 196 185 198 202 146 108 145 176 225 228 132 5 299 276 237 226 236 193 182 186 182 170 165 169 179
290 285 303 305 335 345 338 315 278 245 183 139 103 68 67 60 289 273 299 282 280 319 17 14 103 91 69 23 13 341 276 55 55 62 71 107 108 82 122 84 167 174 172 218 208 175 261 269 192 180 181 177 183 191 160 146 169 188 190 214 222 200 186 169 193 200 138 117 148 168 199 262 230 288 320 286 285 224 204 210 198 188 182 171 165 170 175 181
189 6 360 9 3 353 343 326 243 179 177 154 67 61 63 38 280 257 288 303 312 332 332 34 54 73 85 15 26 30 9 40 92 77 60 73 71 60 276 280 196 187 200 222 204 161 261 257 138 154 211 194 190 168 162 181 174 146 184 199 199 200 145 123 175 126 101 199 176 184 221 237 212 235 190 156 166 158 184 193 191 183 176 172 175 178 179 179
146 50 53 17 356 347 356 71 119 187 182 81 78 72 344 283 230 225 281 320 315 355 356 110 34 30 114 115 21 6 10 61 113 111 89 61 22 53 306 279 178 218 250 244 229 208 272 275 202 202 203 193 198 155 166 205 166 148 190 176 120 55 88 116 189 165 207 223 180 193 229 223 204 210 149 155 160 142 167 182 178 174 174 178 181 175 169 166
54 76 72 4 353 351 122 97 14 337 63 66 71 88 273 344 264 238 294 325 236 78 68 92 29 341 199 135 85 351 333 159 86 58 112 61 23 88 318 312 171 246 285 238 215 161 247 273 282 181 203 110 109 164 163 181 228 202 174 160 149 195 184 168 208 192 201 217 190 192 239 241 219 204 170 177 172 158 164 173 174 174 177 181 177 162 150 145
41 91 84 353 353 18 141 28 3 23 72 63 60 97 294 303 288 275 299 302 199 84 61 61 23 69 109 88 109 18 356 101 105 73 114 43 38 135 336 329 208 324 358 200 194 126 206 277 238 135 295 346 153 188 191 174 174 18 147 171 195 239 183 178 204 205 204 209 198 189 222 234 214 191 175 178 170 167 170 174 179 178 178 177 163 151 145 145
46 89 120 349 352 58 130 342 19 43 64 66 40 70 347 301 303 323 323 331 35 28 41 27 344 71 99 93 112 52 33 56 82 83 71 34 88 159 347 313 294 344 358 206 166 118 190 257 277 133 238 228 177 182 220 186 169 176 177 181 188 167 168 179 163 279 227 207 192 199 215 214 146 59 200 173 166 175 174 170 176 177 176 169 154 154 154 148
54 70 64 348 344 309 335 5 47 42 63 89 7 275 337 344 338 340 341 4 49 32 38 89 74 59 96 92 62 51 56 54 47 76 84 56 82 146 62 61 303 311 292 197 76 40 214 194 272 304 311 217 167 42 317 274 214 189 186 188 189 168 156 187 194 158 256 222 184 214 225 175 76 35 207 171 168 177 171 163 164 169 172 170 162 165 167 158
70 76 19 349 341 295 348 36 68 24 80 79 24 292 323 1 358 344 347 4 37 43 48 66 62 49 47 50 49 43 61 56 21 38 87 57 44 290 355 8 303 275 268 195 70 14 255 135 262 286 310 295 315 9 46 274 320 105 156 186 189 175 177 202 206 166 160 198 99 236 248 124 68 163 178 167 163 163 165 164 159 155 160 165 164 167 168 164
60 103 310 350 349 271 39 60 60 19 54 10 356 310 332 14 15 357 2 10 12 15 40 45 25 39 39 27 72 59 43 45 25 22 62 62 50 309 321 334 304 235 221 143 135 159 171 73 335 282 322 337 262 116 107 146 158 98 54 40 243 247 223 212 211 163 171 180 155 195 227 142 123 160 154 150 145 142 152 157 149 141 142 155 164 166 164 161
37 163 274 352 1 222 143 68 96 58 48 18 43 27 10 43 31 19 24 21 9 358 28 43 27 31 28 17 67 60 18 46 51 25 35 77 36 343 325 335 333 287 328 9 205 192 166 12 337 227 149 128 147 149 134 119 48 56 35 12 336 302 126 119 100 150 188 185 172 212 219 126 132 162 159 155 151 150 159 161 152 143 141 149 158 162 161 160
38 146 258 357 26 66 89 68 122 108 94 92 60 22 12 64 42 19 36 34 20 4 16 41 12 15 27 31 71 56 26 33 65 35 25 39 338 324 331 340 347 3 15 12 353 284 120 65 296 240 189 160 157 144 122 32 344 340 354 2 4 356 222 144 139 189 209 175 164 224 224 117 148 172 170 170 167 162 164 167 162 154 149 149 149 152 156 158
100 114 303 348 34 52 71 41 23 108 118 112 80 25 16 59 37 346 55 57 30 17 33 33 344 329 36 38 65 55 29 27 61 80 43 356 321 318 325 323 341 3 11 26 26 4 133 91 16 348 62 109 128 51 8 323 321 342 6 10 12 1 325 300 183 193 182 153 179 224 143 146 174 185 178 171 168 162 159 162 159 152 148 147 148 149 150 152
69 114 22 317 46 47 89 59 22 74 129 131 97 25 360 18 32 2 32 57 34 23 48 38 20 23 29 25 69 61 25 27 50 52 25 347 299 288 303 291 336 354 351 1 13 354 136 86 25 29 63 86 104 12 5 41 37 32 29 22 19 8 340 287 228 180 145 165 204 178 152 167 182 185 181 172 166 162 159 158 153 148 149 151 151 151 150 151
39 146 41 296 265 55 75 29 18 67 87 92 114 57 6 34 54 38 16 40 33 13 32 46 27 26 13 319 105 68 12 39 50 22 352 360 330 317 336 337 3 358 352 7 14 12 120 74 21 24 73 93 26 10 56 126 96 47 42 33 25 17 2 326 311 329 166 218 249 161 170 184 182 180 178 168 164 161 155 154 151 149 153 153 152 154 155 155
47 117 104 326 10 104 55 343 344 81 72 55 68 64 38 58 72 66 342 16 40 13 21 66 30 20 28 27 112 84 24 73 71 36 354 12 1 358 12 15 3 356 359 30 30 21 117 47 13 337 224 181 357 351 114 151 132 47 35 28 26 27 26 13 346 347 346 340 9 154 168 173 169 174 169 159 161 157 149 151 153 157 160 158 159 161 158 156
39 100 83 57 78 62 25 5 13 101 61 22 61 70 39 60 78 97 7 18 50 18 16 93 78 26 32 47 71 90 82 101 88 61 351 6 19 19 17 5 344 349 358 25 21 347 13 20 349 322 216 176 33 359 360 136 127 60 31 20 18 23 33 44 39 23 356 360 52 145 156 151 166 169 160 155 158 157 156 157 158 163 166 164 167 168 163 159
21 75 319 128 87 3 357 39 33 113 74 21 117 132 141 112 92 104 78 22 39 40 7 112 118 53 20 52 63 71 135 202 203 268 281 303 346 355 355 253 263 332 353 19 360 349 18 88 359 346 232 181 17 359 348 340 145 74 27 11 7 13 19 18 20 359 310 13 133 151 160 169 170 163 157 159 162 162 163 161 159 163 165 167 170 169 166 162
4 110 359 163 103 4 357 68 18 124 114 38 143 146 135 140 163 138 99 53 4 47 15 226 152 84 25 58 49 10 305 237 248 281 282 266 295 291 272 260 261 304 330 5 25 358 10 99 49 2 298 344 355 350 343 313 199 95 22 353 345 14 12 323 333 15 290 174 165 186 321 136 164 165 162 164 166 166 165 163 163 166 167 171 171 164 162 159